Location: Newark
(50.1751°N, 5.6239°W)
Time: 11:59:34
(UTC+00:00)

Nauka - Pass Details

Date: 22 September 2021
Orbit: 417 x 423 km, 51.6° (Epoch: 16 October)

Event Time Altitude Azimuth Distance (km) Brightness Sun altitude
Rises 20:23:48 0° 268° (W) 2,363 ? -20.0°
Reaches altitude 10° 20:25:54 10° 271° (W) 1,500 ? -20.3°
Maximum altitude 20:29:16 68° 355° (N) 457 ? -20.8°
Enters shadow 20:29:16 68° 355° (N) 457 ? -20.8°
